ChubuSat-3 (41339 NORAD) Tracking and Keplerian Element Data

This shows tracking and keplerian element data for the satellite.

Feedback or suggestion? Click here.




ElementValue
Catalog41339
NameChubuSat-3
Epoch Orbit15057
Epoch Day319.56293438
Epoch Year2018
RAAN70.2163
Inclination31.011
Eccentricity0.0013211
Argument of Perigee138.9435
Mean Anonmoly221.2194
Mean Motion15.00237222
Decay Rate3.45E-06
L11 41339U 16012C 18319.56293438 .00000345 00000-0 20109-4 0 9990
L22 41339 31.0110 70.2163 0013211 138.9435 221.2194 15.00237222150571

Live tracking and technical data element details for ChubuSat-3 (NORAD 41339). ChubuSat-3 can be tracked NOW for your location showing map with azimuth and elevation plus other details from your city location.

Track the satellite on the map from your city or location and see movement details for azimuth, elevation, latitude, longitude, range, height, and movement on the map or in text.







IsCatalogInMostPopularTable: catalog: 41339, numindb: 139
Update: records affected: 1



GetName: 41339 ChubuSat-3

Hit Count: updated at: Sun, 18 Nov 2018 02:23:58 GMT